Location: Ocean City
(38.3360°N, 75.0850°W)
Time: 01:36:23
(UTC-04:00)

BEESAT 2 - Pass Details

Date: 25 May 2019
Orbit: 502 x 528 km, 64.9° (Epoch: 18 June)

Event Time Altitude Azimuth Distance (km) Brightness Sun altitude
Rises 02:34:34 0° 339° (NNW) 2,670 ? -26.5°
Reaches altitude 10° 02:37:00 10° 352° (N) 1,778 ? -26.3°
Maximum altitude 02:40:27 28° 52° (NE) 1,024 ? -26.0°
Enters shadow 02:43:00 15° 104° (ESE) 1,481 ? -25.8°
